Regional Weather Roundup
Issued by NWS

Home | Current Version | Previous Version | Text Only | Print | Product List | Glossary Off
Versions: 1 2 3 4 5 6 7 8 9 10 11 12 13 14 15 16 17 18 19 20 21 22 23 24 25 26 27 28 29 30 31 32 33 34 35 36 37 38 39 40 41 42 43 44 45 46 47 48 49 50

000
ASUS45 KABQ 290701
RWRNM
NEW MEXICO REGIONAL WEATHER ROUNDUP
NATIONAL WEATHER SERVICE ALBUQUERQUE NM
100 AM MDT FRI MAY 29 2015

NOTE: "FAIR" MEANS FEW OR NO CLOUDS BELOW 12,000 FEET AGL WITH NO
       SIGNIFICANT WEATHER OR OBSTRUCTIONS TO VISION.

      THIS PRODUCT IS RELEASED AS TWO VERSIONS.  ONE VERSION NEAR
      THE TOP OF THE HOUR CONTAINING PRELIMINARY DATA FROM ALBUQUERQUE
      AND OTHER STATIONS.  A FINAL VERSION WITH ADDITIONAL DATA IS
      ISSUED ABOUT 10 MINUTES AFTER THE HOUR.

NMZ501-503-504-510>518-290800-
NORTHWEST PLATEAU/NORTHCENTRAL MOUNTAINS

CITY           SKY/WX    TMP DP  RH WIND       PRES   REMARKS
FARMINGTON     CLEAR     57  37  47 E6        30.12S
SANTA FE       CLEAR     59  28  30 N14       30.13R
TAOS           CLEAR     52  30  43 N13       30.20F

$$
NMZ402-403-502-505>509-290800-
WESTCENTRAL MOUNTAINS/SOUTHWEST MOUNTAINS

CITY           SKY/WX    TMP DP  RH WIND       PRES   REMARKS
GALLUP         CLEAR     58  33  39 E13       30.18R
GRANTS         CLEAR     48  26  43 N3        30.20S
SILVER CITY      N/A     59  18  20 NW13      30.12S

$$
NMZ407-409-411-412-290800-
SOUTHERN DESERTS

CITY           SKY/WX    TMP DP  RH WIND       PRES   REMARKS
DEMING         CLEAR     67  19  16 NW9       30.01S
HOLLOMAN AFB   CLEAR     69  20  15 NW12      29.94R
ALAMOGORDO     CLEAR     72  18  13 W9        29.96S
T OR C         CLEAR     71  16  12 NW12      30.04R

$$
NMZ519>523-290800-
CENTRAL VALLEYS/CENTRAL HIGHLANDS

CITY           SKY/WX    TMP DP  RH WIND       PRES   REMARKS
ALBUQUERQUE    CLEAR     67  32  27 N8        30.09R
DOUBLE EAGLE   CLEAR     60  34  37 NW12      30.12S
MORIARTY ARPT  FAIR      49  32  52 N3        30.14S
CLINES CORNERS CLEAR     57  27  31 N6        30.16S
BELEN          FAIR      62  31  31 NW9       30.08S
SOCORRO        NOT AVBL

$$
NMZ524>526-539-540-290800-
SOUTHCENTRAL MOUNTAINS

CITY           SKY/WX    TMP DP  RH WIND       PRES   REMARKS
RUIDOSO        NOT AVBL

$$
NMZ527>531-290800-
NORTHEAST HIGHLANDS/NORTHEAST PLAINS

CITY           SKY/WX    TMP DP  RH WIND       PRES   REMARKS
LAS VEGAS      PTCLDY    50  49  96 NE12      30.17R
RATON          PTCLDY    54  48  80 W9        30.16R
CLAYTON        MOCLDY    53  48  83 N13       30.09R

$$
NMZ532>537-290800-
EASTCENTRAL PLAINS

CITY           SKY/WX    TMP DP  RH WIND       PRES   REMARKS
TUCUMCARI      MOCLDY    59  52  77 SE5       30.02S
CANNON AFB     NOT AVBL
CLOVIS AIRPORT CLOUDY    55  52  88 N6        30.02R

$$
NMZ028-029-538-290800-
SOUTHEAST PLAINS

CITY           SKY/WX    TMP DP  RH WIND       PRES   REMARKS
ROSWELL        PTCLDY    62  53  72 SW13      29.98F
ARTESIA        CLEAR     61  55  82 S5        30.01R
CARLSBAD       CLEAR     59  54  83 S5        29.97F
HOBBS          CLOUDY    57  57 100 S6        29.99F


$$


USA.gov is the U.S. government's official web portal to all federal, state and local government web resources and services.